CW4421 Weather Reports


Display with metric or nautical units.
time (UTC)temp
F
wind
direction
speed
MPH
gust
MPH
rain 1hr
in
rain 24hr
in
rain mn
in
humidity
%
barometer
mb
20260504140103 69 210 7.0 12.0 0.00 0.00 0.00 46 1000.2
20260504081511 65 216 10.0 16.0 0.00 0.00 0.00 45 1001.4
20260504044538 72 211 10.0 19.0 0.00 0.00 0.00 33 1003.2
20260504043040 71 215 14.0 19.0 0.00 0.00 0.00 34 1003.3
20260504041536 67 215 8.0 14.0 0.00 0.00 0.00 38 1003.4
20260504040036 63 207 7.0 10.0 0.00 0.00 0.00 43 1003.5
20260504034535 61 194 4.0 6.0 0.00 0.00 0.00 44 1003.4
20260504033044 62 192 5.0 6.0 0.00 0.00 0.00 44 1003.4
20260504031534 64 176 5.0 6.0 0.00 0.00 0.00 41 1003.3
20260504030034 65 165 4.0 7.0 0.00 0.00 0.00 39 1003.3
20260504024541 67 151 4.0 6.0 0.00 0.00 0.00 37 1003.3
20260504023035 67 154 1.0 3.0 0.00 0.00 0.00 36 1003.3
20260504021532 67 174 4.0 7.0 0.00 0.00 0.00 36 1003.4
20260504020032 69 178 4.0 5.0 0.00 0.00 0.00 34 1003.3
20260504014531 71 186 4.0 5.0 0.00 0.00 0.00 32 1003.3
20260504013037 73 190 5.0 6.0 0.00 0.00 0.00 30 1003.3
20260504011530 75 198 4.0 6.0 0.00 0.00 0.00 28 1003.3
20260504010029 77 213 5.0 9.0 0.00 0.00 0.00 26 1003.4
20260504004529 80 205 6.0 11.0 0.00 0.00 0.00 23 1003.9
20260504003039 81 232 8.0 15.0 0.00 0.00 0.00 22 1004.0
20260504001527 82 205 8.0 19.0 0.00 0.00 0.00 22 1004.2
20260504000027 83 219 6.0 14.0 0.00 0.00 0.00 21 1004.5
20260503234527 83 226 10.0 20.0 0.00 0.00 0.00 20 1004.6
20260503233034 83 218 11.0 18.0 0.00 0.00 0.00 19 1004.7
20260503231524 84 242 13.0 20.0 0.00 0.00 0.00 19 1004.9
20260503230024 85 226 9.0 18.0 0.00 0.00 0.00 20 1005.0
20260503224528 85 213 12.0 20.0 0.00 0.00 0.00 19 1005.1
20260503223022 86 238 10.0 20.0 0.00 0.00 0.00 17 1005.4
20260503221520 87 235 10.0 23.0 0.00 0.00 0.00 18 1005.6
20260503220022 87 211 9.0 20.0 0.00 0.00 0.00 18 1005.8
20260503214519 87 228 12.0 19.0 0.00 0.00 0.00 17 1005.8
20260503213019 88 219 9.0 21.0 0.00 0.00 0.00 17 1006.2
20260503211517 89 215 11.0 20.0 0.00 0.00 0.00 17 1006.4
20260503210016 87 244 12.0 21.0 0.00 0.00 0.00 18 1006.8
20260503204516 87 215 12.0 19.0 0.00 0.00 0.00 17 1007.0
20260503203018 88 263 9.0 14.0 0.00 0.00 0.00 19 1007.6
20260503201513 87 232 10.0 24.0 0.00 0.00 0.00 18 1007.7
20260503200011 86 251 7.0 22.0 0.00 0.00 0.00 18 1008.0
20260503194512 87 251 10.0 18.0 0.00 0.00 0.00 19 1008.3
20260503193009 86 236 10.0 23.0 0.00 0.00 0.00 19 1008.4
20260503191507 86 238 10.0 22.0 0.00 0.00 0.00 18 1008.8
20260503190010 86 239 12.0 24.0 0.00 0.00 0.00 18 1008.9
20260503184512 86 239 10.0 21.0 0.00 0.00 0.00 19 1009.2
20260503183005 86 263 12.0 21.0 0.00 0.00 0.00 18 1009.4
20260503181505 85 236 11.0 20.0 0.00 0.00 0.00 17 1010.0
20260503180004 85 244 11.0 25.0 0.00 0.00 0.00 17 1010.1
20260503174504 85 246 11.0 21.0 0.00 0.00 0.00 19 1010.4
20260503173101 85 234 9.0 26.0 0.00 0.00 0.00 21 1010.7
20260503171613 85 246 11.0 20.0 0.00 0.00 0.00 18 1011.1
20260503170105 84 265 9.0 15.0 0.00 0.00 0.00 22 1011.2